Retour au catalogue

SL-16 DEB

ActifLEO
NORAD 22393·DEBRIS·🇷🇺 Russia

Lancé Dec 25, 1992 depuis Baikonur Cosmodrome

Loading…

Prochains Passages (prochaines 24 heures)

TLE

FraisSource: Space-Track

Époque: Sep 14, 2026, 08:42 UTC

1 22393U 92093CJ  26257.36255828  .00000782  00000-0  44065-3 0  9992
2 22393  71.1226  33.0596 0115941 234.9185 155.3258 14.10050611720680

Suivez SL-16 DEB en temps réel avec AllMySat

Download on the App Store